This is the latest recevied weather packets stored in our database for station/object KM5R. If no packets are shown the sender has not sent any weather packets the latest 10 day(s).
| Time | Temp. | Humidity | Pressure | Rain* | Wind** | Luminosity | Snow |
|---|---|---|---|---|---|---|---|
| 1777638385 | 12.22° C | 92% | 1016.4 hPa | 0 mm | - | 11 W/m² | - |
| 1777638082 | 12.22° C | 92% | 1016.4 hPa | 0 mm | - | 9 W/m² | - |
| 1777637778 | 12.22° C | 92% | 1016.6 hPa | 0 mm | - | 4 W/m² | - |
| 1777637474 | 12.78° C | 92% | 1016.2 hPa | 0 mm | - | 2 W/m² | - |
| 1777637172 | 12.78° C | 92% | 1016.3 hPa | 0 mm | - | 2 W/m² | - |
| 1777636869 | 12.78° C | 92% | 1015.8 hPa | 1.78 mm | - | 2 W/m² | - |
| 1777636564 | 12.78° C | 92% | 1015.5 hPa | 1.78 mm | - | 1 W/m² | - |
| 1777636261 | 12.78° C | 92% | 1016 hPa | 0 mm | - | 1 W/m² | - |
| 1777635959 | 12.78° C | 92% | 1016.5 hPa | 1.27 mm | - | 0 W/m² | - |
| 1777635656 | 12.78° C | 92% | 1016.7 hPa | 1.27 mm | - | 0 W/m² | - |
| 1777635353 | 12.78° C | 92% | 1016.4 hPa | 1.78 mm | - | 0 W/m² | - |
| 1777635049 | 12.78° C | 92% | 1016.9 hPa | 1.78 mm | - | 0 W/m² | - |
| 1777634745 | 12.78° C | 92% | 1016.7 hPa | 0 mm | - | 0 W/m² | - |
| 1777634443 | 12.78° C | 92% | 1016.5 hPa | 1.27 mm | - | 0 W/m² | - |
| 1777634140 | 12.78° C | 92% | 1016.8 hPa | 1.27 mm | - | 0 W/m² | - |
| 1777633836 | 12.78° C | 92% | 1016.7 hPa | 0 mm | - | 0 W/m² | - |
| 1777633534 | 12.78° C | 92% | 1016.2 hPa | 0 mm | - | 0 W/m² | - |
| 1777633232 | 12.78° C | 92% | 1016.2 hPa | 0 mm | - | 0 W/m² | - |
| 1777632929 | 12.78° C | 92% | 1016.1 hPa | 0 mm | - | 0 W/m² | - |
| 1777632625 | 12.78° C | 92% | 1016.3 hPa | 0 mm | - | 0 W/m² | - |
| 1777632322 | 12.78° C | 92% | 1015.9 hPa | 0 mm | - | 0 W/m² | - |
| 1777632019 | 12.78° C | 92% | 1015.7 hPa | 0 mm | - | 0 W/m² | - |
| 1777631717 | 12.78° C | 92% | 1015.7 hPa | 0 mm | - | 0 W/m² | - |
| 1777631414 | 12.78° C | 92% | 1015.7 hPa | 0 mm | - | 0 W/m² | - |
| 1777631111 | 13.33° C | 92% | 1015.8 hPa | 0 mm | - | 0 W/m² | - |
* Rain latest hour (hover to see other rain measurements)
** Current wind speed in m/s (hover to see current wind gust speed)